Skip Page Navigation
NASA JPL Caltech
NASA Logo - Jet Propulsion Laboratory + View the NASA Portal
+ Center for Near-Earth Object Studies
JPL Home Earth Solar System Stars & Galaxies Technology
JPL Solar System Dynamics
BODIES ORBITS EPHEMERIDES TOOLS PHYSICAL DATA DISCOVERY FAQ SITE MAP
JPL Small-Body Database Browser
Search: [ help ]  
4534 Rimskij-Korsakov (1986 PV4)
Classification: Main-belt Asteroid          SPK-ID: 2004534
Ephemeris | Orbit Diagram | Orbital Elements | Mission Design | Physical Parameters | Discovery Circumstances | Close-Approach Data ]

[ hide orbit diagram ]

For accurate long-term ephemerides, please instead use our Horizons system.This orbit viewer was implemented using two-body methods, and hence should not be used for determining accurate long-term trajectories (over several years or decades) or planetary encounter circumstances.


[ revert to old Java-based viewer ]

Orbital Elements at Epoch 2459000.5 (2020-May-31.0) TDB
Reference: JPL 35 (heliocentric ecliptic J2000)
 Element Value Uncertainty (1-sigma)   Units 
e .1777246858020657 3.1527e-08  
a 2.797172105415937 1.2331e-08 au
q 2.300045571846587 8.6304e-08 au
i 7.239323120604977 4.0649e-06 deg
node 313.2399499712107 2.9725e-05 deg
peri 311.1000503777647 3.2395e-05 deg
M 128.9895206599306 1.3874e-05 deg
tp 2458388.249514891549
(2018-Sep-26.74951489)
6.49e-05 TDB
period 1708.744815170948
4.68
1.1299e-05
3.093e-08
d
yr
n .2106809611381232 1.3932e-09 deg/d
Q 3.294298638985287 1.4523e-08 au
  Orbit Determination Parameters
   # obs. used (total)      2521  
   data-arc span      14839 days (40.63 yr)  
   first obs. used      1980-03-16  
   last obs. used      2020-10-31  
   planetary ephem.      DE431  
   SB-pert. ephem.      SB431-N16  
   condition code      0  
   norm. resid. RMS      .46133  
   source      ORB  
   producer      Otto Matic  
   solution date      2020-Nov-13 03:50:48  

Additional Information
 Earth MOID = 1.292 au 
 Jupiter MOID = 1.85722 au 
 T_jup = 3.292 
[ show covariance matrix ]

Ephemeris | Orbit Diagram | Orbital Elements | Mission Design | Physical Parameters | Discovery Circumstances | Close-Approach Data ]

Physical Parameter Table
Parameter Symbol Value Units Sigma Reference Notes
absolute magnitude H 12.8   n/a MPO502197  
diameter diameter 15.838 km 0.232 urn:nasa:pds:neowise_diameters_albedos::2.0[mainbelt] (http://adsabs.harvard.edu/abs/2011ApJ...741...68M)  
rotation period rot_per 11.646 h n/a LCDB (Rev. 2019-August); Warner et al., 2009 Result based on less than full coverage, so that the period may be wrong by 30 percent or so.
Published Reference List:
[Waszczak, A.; Chang, C.-K.; Ofeck, E.O.; Laher, F.; et al. (2015) Astron. J. 150, A75.]
geometric albedo albedo 0.064   0.007 urn:nasa:pds:neowise_diameters_albedos::2.0[mainbelt] (http://adsabs.harvard.edu/abs/2011ApJ...741...68M)  
SMASSII spectral type spec_B Cb   n/a EAR-A-5-DDR-TAXONOMY-V4.0 based on a high-resolution spectrum by Xu et al. (1995) or Bus and Binzel (2002)

4534 Rimskij-Korsakov (1986 PV4)          Discovered 1986-Aug-06 by Crimean Ap. Obs. at Nauchnyj
Reference: DISCOVERY.DBLast Updated: 2003-08-29

[ hide close-approach data ]
Close-Approach Data   ...sorted by Date/Time (TDB)
Date/Time (TDB) Time Uncertainty
(days_HH:MM)
Body Nominal Distance (au) Minimum Distance (au) Maximum Distance (au) V-relative (km/s) V-infinity (km/s) JD (TDB) Time Uncertainty (minutes) Semi-major axis (km) Semi-minor axis (km) range-LOV angle (deg) N-sigma BP Orbit Ref. Reference Modified
1917-Aug-09 05:59 00:02 Jupiter 1.88035627348015 1.88035581975724 1.88035672720307 1.80948670058877 1.54055998489941 2421449.749299192 1.92742039264052 50.2601780911504 29.3974210526152 -63.2889155742576 3006220.67176807 T 35 CATAB v2.0f-lin.ifort 2020-Nov-13 03:50:55 2020-Nov-13 03:50
1940-Oct-06 10:29 00:01 Jupiter 1.95916746245214 1.9591668720208 1.95916805288369 2.1871012764799 1.979579758612 2429908.936578680 1.46472539139617 66.1734583878212 16.2398435160054 85.3541476314364 2534283.3203989 T 35 CATAB v2.0f-lin.ifort 2020-Nov-13 03:50:55 2020-Nov-13 03:50
2049-May-24 21:33 < 00:01 Jupiter 1.91810067207381 1.91810032572112 1.91810101842649 2.59415120137539 2.41793954746513 2469586.397663061 0.725924647151353 70.9033377077041 11.1954204962237 -83.9196317150471 3132147.85360827 T 35 CATAB v2.0f-lin.ifort 2020-Nov-13 03:50:55 2020-Nov-13 03:50
2072-Aug-05 20:24 00:01 Jupiter 1.85880757445837 1.85880725582601 1.85880789309072 2.19690500633676 1.97864358703912 2478060.349670853 1.23534713673774 88.0926569863117 13.4624901692069 -76.1351148608405 3075411.82719519 T 35 CATAB v2.0f-lin.ifort 2020-Nov-13 03:50:55 2020-Nov-13 03:50
2095-Oct-18 02:02 00:02 Jupiter 1.86903848381102 1.8690379725128 1.86903899510955 1.93628425563988 1.68606768731857 2486533.585067299 1.84764178914404 71.7793473830298 23.1576601033288 -60.4130757446188 3082102.98894416 T 35 CATAB v2.0f-lin.ifort 2020-Nov-13 03:50:55 2020-Nov-13 03:50
2118-Dec-20 01:01 00:03 Jupiter 1.93774083062347 1.93773983894558 1.93774182230104 2.04735957176228 1.82138520382473 2494996.542036482 2.54348528268344 63.8834557869958 20.3266868792895 87.2495026764979 1834753.4727658 T 35 CATAB v2.0f-lin.ifort 2020-Nov-13 03:50:55 2020-Nov-13 03:50

Alternate Designations
 1986 PV4 = 1980 FR9 = 1982 UV8 = 1989 AK3 
Ephemeris | Orbit Diagram | Orbital Elements | Mission Design | Physical Parameters | Discovery Circumstances | Close-Approach Data ]
ABOUT SSD CREDITS/AWARDS PRIVACY/COPYRIGHT GLOSSARY LINKS
FirstGov 2020-Dec-03 05:51 UT
(server date/time)  
NASA Home Page
Site Manager:   Ryan S. Park
Webmaster  Alan B. Chamberlin